Williston, ND

8:56 PM CST on November 20, 2017 (GMT -0600)
Sloulin International

Weather History for KISN - January, 2013

Change the Weather History Date:

Thursday, January 31, 2013

  Actual Average Record
Temperature  
Mean Temperature -11 °F 13 °F  
Max Temperature -2 °F 24 °F 54 °F (1931)
Min Temperature -21 °F 2 °F -36 °F (1917)
Degree Days  
Heating Degree Days 76 52  
Month to date heating degree days 1620 1675  
Since 1 July heating degree days 5374 5421  
Cooling Degree Days 0 0  
Month to date cooling degree days 0 0  
Year to date cooling degree days 0 0  
Moisture  
Dew Point -21 °F    
Average Humidity 70    
Maximum Humidity 78    
Minimum Humidity 62    
Precipitation  
Precipitation T in 0.01 in 0.43 in (1939)
Month to date precipitation 0.43 0.59  
Year to date precipitation 0.43 0.59  
Snow  
Snow T in - - ()
Month to date snowfall 6.4  
Snow Depth 3.00 in    
Sea Level Pressure  
Sea Level Pressure 30.39 in    
Wind  
Wind Speed 9 mph (WNW)    
Max Wind Speed 25 mph    
Max Gust Speed 29 mph    
Visibility 9 miles    
Events Snow    
T = Trace of Precipitation, MM = Missing Value Source: NWS Daily Summary

Daily Weather History Graph

Daily Weather History Graph

Search for Another Location

Airport or City:

Trip Planner

Search our weather history database for the weather conditions in past years. The results will help you decide how hot, cold, wet, or windy it might be!

Date:

Astronomy

Jan. 31, 2013 Rise Set
Actual Time 8:23 AM CST 5:53 PM CST
Civil Twilight 7:50 AM CST 6:26 PM CST
Nautical Twilight 7:12 AM CST 7:04 PM CST
Astronomical Twilight 6:36 AM CST 7:40 PM CST
Moon 11:27 PM CST (1/31) 9:58 AM CST (1/31)
Length of Visible Light 10h 36m
Length of Day
9h 29m
Waning Gibbous, 79% of the Moon is Illuminated
Jan 31
Waning Gibbous
Feb 3
Last Quarter
Feb 10
New
Feb 17
First Quarter
Feb 25
Full

Hourly Weather History & Observations

Time (CST) Temp. Windchill Dew Point Humidity Pressure Visibility Wind Dir Wind Speed Gust Speed Precip Events Conditions
12:32 AM -14.8 °F -42.4 °F -20.2 °F 77% 30.15 in 3.0 mi NNW 21.9 mph 28.8 mph 0.00 in Snow Light Snow
12:40 AM -14.8 °F -41.8 °F -20.2 °F 77% 30.15 in 3.0 mi NNW 20.7 mph - 0.00 in   Overcast
12:45 AM -14.8 °F -40.5 °F -20.2 °F 77% 30.15 in 4.0 mi NNW 18.4 mph - 0.00 in   Overcast
12:52 AM -15.0 °F -42.6 °F -22.0 °F 71% 30.36 in 4.0 mi NNW 21.9 mph 25.3 mph 0.00 in   Overcast
1:09 AM -14.8 °F -39.1 °F -22.0 °F 70% 30.16 in 4.0 mi NNW 16.1 mph - 0.00 in Snow Light Snow
1:31 AM -16.6 °F -44.1 °F -22.0 °F 76% 30.17 in 8.0 mi NNW 20.7 mph - 0.00 in   Overcast
1:41 AM -16.6 °F -41.4 °F -22.0 °F 76% 30.18 in 9.0 mi NW 16.1 mph - 0.00 in   Overcast
1:52 AM -16.1 °F -40.7 °F -22.0 °F 74% 30.39 in 10.0 mi NW 16.1 mph - 0.00 in   Mostly Cloudy
2:39 AM -16.6 °F -42.1 °F -22.0 °F 76% 30.21 in 7.0 mi NW 17.3 mph - 0.00 in   Mostly Cloudy
2:52 AM -17.0 °F -41.9 °F -23.1 °F 74% 30.43 in 10.0 mi NW 16.1 mph - 0.00 in   Scattered Clouds
3:52 AM -18.0 °F -39.7 °F -24.0 °F 74% 30.45 in 10.0 mi WNW 11.5 mph - N/A   Clear
4:52 AM -18.9 °F -42.8 °F -26.0 °F 70% 30.47 in 10.0 mi WNW 13.8 mph - N/A   Clear
5:52 AM -20.0 °F -45.0 °F -26.0 °F 74% 30.50 in 10.0 mi WNW 15.0 mph - N/A   Clear
6:52 AM -20.0 °F -41.1 °F -26.0 °F 74% 30.52 in 10.0 mi WNW 10.4 mph - N/A   Clear
7:52 AM -20.9 °F -36.4 °F -26.0 °F 77% 30.53 in 10.0 mi WSW 5.8 mph - N/A   Clear
8:52 AM -20.9 °F -42.2 °F -27.0 °F 73% 30.54 in 10.0 mi West 10.4 mph - N/A   Clear
9:52 AM -20.0 °F -38.6 °F -27.0 °F 70% 30.56 in 10.0 mi West 8.1 mph - N/A   Clear
10:52 AM -17.0 °F -40.2 °F -25.1 °F 67% 30.56 in 10.0 mi WNW 13.8 mph - N/A   Clear
11:52 AM -15.0 °F -34.8 °F -23.1 °F 67% 30.55 in 10.0 mi West 10.4 mph - N/A   Clear
12:52 PM -14.1 °F -33.7 °F -22.0 °F 68% 30.53 in 10.0 mi West 10.4 mph - N/A   Clear
1:52 PM -13.0 °F -33.4 °F -20.9 °F 68% 30.51 in 10.0 mi West 11.5 mph - N/A   Clear
2:52 PM -11.0 °F -30.9 °F -20.0 °F 64% 30.48 in 10.0 mi West 11.5 mph - N/A   Clear
3:52 PM -9.9 °F -27.5 °F -18.9 °F 65% 30.46 in 10.0 mi West 9.2 mph - N/A   Clear
4:52 PM -9.9 °F -24.9 °F -18.9 °F 65% 30.45 in 10.0 mi West 6.9 mph - N/A   Clear
5:52 PM -11.9 °F -23.8 °F -18.9 °F 71% 30.43 in 10.0 mi SW 4.6 mph - N/A   Clear
6:52 PM -9.9 °F - -18.0 °F 68% 30.40 in 10.0 mi Calm Calm - N/A   Mostly Cloudy
7:52 PM -9.0 °F - -16.1 °F 71% 30.38 in 10.0 mi Calm Calm - N/A   Overcast
8:52 PM -8.0 °F -19.2 °F -15.0 °F 71% 30.35 in 10.0 mi SSE 4.6 mph - N/A   Overcast
9:52 PM -6.0 °F -14.7 °F -13.0 °F 72% 30.32 in 10.0 mi South 3.5 mph - N/A   Overcast
10:52 PM -4.0 °F -14.6 °F -9.9 °F 76% 30.28 in 10.0 mi South 4.6 mph - 0.00 in Snow Light Snow
11:52 PM -2.0 °F -13.9 °F -8.0 °F 76% 30.24 in 10.0 mi SSE 5.8 mph - 0.00 in   Overcast